Tracking 29892 objects as of 21-Nov-2024
HD Live streaming from Space Station
objects crossing your sky now

STARLINK-5120

Track STARLINK-5120 now!
10-day predictions
STARLINK-5120 is classified as:


NORAD ID: 53982
Int'l Code: 2022-125U
Perigee: 545.9 km
Apogee: 547.8 km
Inclination: 53.2 °
Period: 95.4 minutes
Semi major axis: 6917 km
RCS: Unknown
Launch date: October 5, 2022
Source: United States (US)
Launch site: AIR FORCE WESTERN TEST RANGE (AFWTR)
Your satellite tracking list
Your tracking list is empty




NASA's NSSDC Master Catalog

Two Line Element Set (TLE):
1 53982U 22125U   24324.89161623  .00008295  00000-0  53853-3 0  9991
2 53982  53.2148 185.6064 0001431  86.1228 273.9928 15.08849339117771
Source of the keplerian elements: AFSPC